Time,TemperatureF,DewpointF,PressureIn,WindDirection,WindDirectionDegrees,WindSpeedMPH,WindSpeedGustMPH,Humidity,HourlyPrecipIn,Conditions,Clouds,dailyrainin,SoftwareType,DateUTC
2013-04-08 00:00:00,53.5,49.7,29.79,SSE,160,0.0,7.0,87,0.00,,---,0.00,VWS V14.01,2013-04-08 07:00:00,
2013-04-08 00:15:00,53.1,49.3,29.80,SSE,150,0.0,5.0,87,0.00,,---,0.00,VWS V14.01,2013-04-08 07:15:00,
2013-04-08 00:30:00,53.1,49.7,29.80,SSE,150,0.0,0.0,88,0.00,,---,0.00,VWS V14.01,2013-04-08 07:30:00,
2013-04-08 00:45:00,53.4,49.9,29.80,ESE,115,0.0,4.0,88,0.00,,---,0.00,VWS V14.01,2013-04-08 07:45:00,
2013-04-08 01:00:00,53.2,49.7,29.80,NE,52,3.0,4.0,88,0.00,,---,0.00,VWS V14.01,2013-04-08 08:00:00,
2013-04-08 01:15:00,53.4,49.9,29.79,ENE,78,0.0,4.0,88,0.00,,---,0.00,VWS V14.01,2013-04-08 08:15:00,
2013-04-08 01:30:00,53.6,49.8,29.78,East,94,3.0,5.0,87,0.00,,---,0.00,VWS V14.01,2013-04-08 08:30:00,
2013-04-08 01:45:00,53.3,49.2,29.77,East,96,2.0,5.0,86,0.00,,---,0.00,VWS V14.01,2013-04-08 08:45:00,
2013-04-08 02:00:00,52.9,48.8,29.76,East,96,0.0,3.0,86,0.00,,---,0.00,VWS V14.01,2013-04-08 09:00:00,
2013-04-08 02:15:00,52.5,48.1,29.74,East,96,0.0,0.0,85,0.00,,---,0.00,VWS V14.01,2013-04-08 09:15:00,
2013-04-08 02:30:00,51.9,47.5,29.75,East,97,0.0,3.0,85,0.00,,---,0.00,VWS V14.01,2013-04-08 09:30:00,
2013-04-08 02:45:00,51.4,47.0,29.74,East,95,0.0,4.0,85,0.00,,---,0.00,VWS V14.01,2013-04-08 09:45:00,
2013-04-08 03:00:00,50.8,46.2,29.73,ENE,61,0.0,5.0,84,0.00,,---,0.00,VWS V14.01,2013-04-08 10:00:00,
2013-04-08 03:15:00,50.7,46.4,29.72,ENE,62,0.0,0.0,85,0.00,,---,0.00,VWS V14.01,2013-04-08 10:15:00,
2013-04-08 03:30:00,50.9,46.9,29.73,ENE,61,0.0,0.0,86,0.00,,---,0.00,VWS V14.01,2013-04-08 10:30:00,
2013-04-08 03:45:00,51.2,46.8,29.73,ENE,63,0.0,3.0,85,0.00,,---,0.00,VWS V14.01,2013-04-08 10:45:00,
2013-04-08 04:00:00,51.4,46.7,29.73,ENE,63,0.0,0.0,84,0.00,,---,0.00,VWS V14.01,2013-04-08 11:00:00,
2013-04-08 04:15:00,51.9,47.5,29.72,ENE,63,0.0,4.0,85,0.00,,---,0.00,VWS V14.01,2013-04-08 11:15:00,
2013-04-08 04:30:00,52.8,48.1,29.71,East,85,0.0,5.0,84,0.00,,---,0.00,VWS V14.01,2013-04-08 11:30:00,
2013-04-08 05:00:00,53.8,49.4,29.72,SE,132,0.0,5.0,85,0.00,,---,0.00,VWS V14.01,2013-04-08 12:00:00,
2013-04-08 05:15:00,54.0,49.6,29.71,SE,126,0.0,4.0,85,0.00,,---,0.00,VWS V14.01,2013-04-08 12:15:00,
2013-04-08 05:30:00,54.1,50.0,29.70,SSE,149,5.0,6.0,86,0.00,,---,0.00,VWS V14.01,2013-04-08 12:30:00,
2013-04-08 05:45:00,53.9,50.1,29.69,SE,136,2.0,6.0,87,0.00,,---,0.00,VWS V14.01,2013-04-08 12:45:00,
2013-04-08 06:00:00,53.9,50.4,29.70,South,173,0.0,8.0,88,0.00,,---,0.00,VWS V14.01,2013-04-08 13:00:00,
2013-04-08 06:15:00,54.0,50.8,29.70,SW,225,3.0,7.0,89,0.00,,---,0.00,VWS V14.01,2013-04-08 13:15:00,
2013-04-08 06:30:00,53.8,50.6,29.69,SSW,205,2.0,11.0,89,0.00,,---,0.00,VWS V14.01,2013-04-08 13:30:00,
2013-04-08 06:45:00,53.5,50.3,29.70,WSW,250,6.0,13.0,89,0.00,,---,0.00,VWS V14.01,2013-04-08 13:45:00,
2013-04-08 07:00:00,52.2,48.5,29.70,SW,218,5.0,15.0,87,0.00,,---,0.00,VWS V14.01,2013-04-08 14:00:00,
2013-04-08 07:15:00,51.9,47.8,29.71,SSW,200,7.0,13.0,86,0.00,,---,0.00,VWS V14.01,2013-04-08 14:15:00,
2013-04-08 07:30:00,52.0,47.6,29.71,West,265,5.0,11.0,85,0.00,,---,0.00,VWS V14.01,2013-04-08 14:30:00,
2013-04-08 07:45:00,52.1,47.4,29.70,WSW,258,2.0,12.0,84,0.00,,---,0.00,VWS V14.01,2013-04-08 14:45:00,
2013-04-08 08:00:00,52.2,47.8,29.69,SW,225,5.0,11.0,85,0.00,,---,0.00,VWS V14.01,2013-04-08 15:00:00,
2013-04-08 08:15:00,52.0,48.3,29.69,WSW,246,3.0,10.0,87,0.00,,---,0.00,VWS V14.01,2013-04-08 15:15:00,
2013-04-08 08:30:00,51.8,48.1,29.69,WSW,252,3.0,10.0,87,0.01,,---,0.01,VWS V14.01,2013-04-08 15:30:00,
2013-04-08 08:45:00,51.4,47.7,29.69,WSW,238,4.0,16.0,87,0.01,,---,0.01,VWS V14.01,2013-04-08 15:45:00,
2013-04-08 09:00:00,51.1,47.1,29.70,WSW,238,5.0,12.0,86,0.01,,---,0.01,VWS V14.01,2013-04-08 16:00:00,
2013-04-08 09:15:00,51.0,46.7,29.71,SSW,211,5.0,12.0,85,0.01,,---,0.01,VWS V14.01,2013-04-08 16:15:00,
2013-04-08 09:30:00,50.7,45.4,29.72,SW,229,7.0,15.0,82,0.01,,---,0.01,VWS V14.01,2013-04-08 16:30:00,
2013-04-08 09:45:00,50.6,45.0,29.72,West,260,6.0,14.0,81,0.00,,---,0.01,VWS V14.01,2013-04-08 16:45:00,
2013-04-08 10:00:00,51.0,45.7,29.72,SW,214,11.0,13.0,82,0.00,,---,0.01,VWS V14.01,2013-04-08 17:00:00,
2013-04-08 10:15:00,50.8,44.9,29.74,SW,234,5.0,11.0,80,0.00,,---,0.01,VWS V14.01,2013-04-08 17:15:00,
2013-04-08 10:30:00,50.7,44.4,29.74,SSW,206,5.0,7.0,79,0.00,,---,0.01,VWS V14.01,2013-04-08 17:30:00,
2013-04-08 10:45:00,51.0,44.7,29.74,WSW,250,3.0,6.0,79,0.00,,---,0.01,VWS V14.01,2013-04-08 17:45:00,
2013-04-08 11:00:00,51.7,45.1,29.74,South,179,4.0,7.0,78,0.00,,---,0.01,VWS V14.01,2013-04-08 18:00:00,
2013-04-08 11:15:00,52.5,44.5,29.74,South,185,0.0,9.0,74,0.00,,---,0.01,VWS V14.01,2013-04-08 18:15:00,
2013-04-08 11:30:00,53.3,45.2,29.74,South,180,0.0,6.0,74,0.00,,---,0.01,VWS V14.01,2013-04-08 18:30:00,
2013-04-08 11:45:00,54.6,45.4,29.72,ESE,112,7.0,9.0,71,0.00,,---,0.01,VWS V14.01,2013-04-08 18:45:00,
2013-04-08 12:00:00,56.4,46.0,29.72,SSE,167,8.0,10.0,68,0.00,,---,0.01,VWS V14.01,2013-04-08 19:00:00,
2013-04-08 12:15:00,59.0,47.3,29.71,SSW,198,3.0,12.0,65,0.00,,---,0.01,VWS V14.01,2013-04-08 19:15:00,
2013-04-08 12:21:00,59.5,44.7,29.71,ESE,114,1.0,1.0,58,0.00,,---,0.01,VWS V14.01,2013-04-08 19:21:00,
2013-04-08 12:22:00,59.3,44.5,29.71,SE,138,0.0,7.0,58,0.00,,---,0.01,VWS V14.01,2013-04-08 19:22:00,
2013-04-08 12:27:00,59.0,45.6,29.71,SSE,157,6.0,10.0,61,0.00,,---,0.01,VWS V14.01,2013-04-08 19:27:00,
2013-04-08 12:32:00,58.9,47.2,29.70,SSW,196,8.0,11.0,65,0.00,,---,0.01,VWS V14.01,2013-04-08 19:32:00,
2013-04-08 12:37:00,59.0,45.6,29.71,SE,143,0.0,11.0,61,0.00,,---,0.01,VWS V14.01,2013-04-08 19:37:00,
2013-04-08 12:42:00,58.9,45.9,29.70,SSE,150,4.0,12.0,62,0.00,,---,0.01,VWS V14.01,2013-04-08 19:42:00,
2013-04-08 12:47:00,59.0,45.6,29.70,North,360,4.0,7.0,61,0.00,,---,0.01,VWS V14.01,2013-04-08 19:47:00,
2013-04-08 12:52:00,58.5,44.7,29.70,SSE,168,4.0,12.0,60,0.00,,---,0.01,VWS V14.01,2013-04-08 19:52:00,
2013-04-08 12:57:00,58.1,45.2,29.71,SSE,150,4.0,12.0,62,0.00,,---,0.01,VWS V14.01,2013-04-08 19:57:00,
2013-04-08 13:03:00,57.8,45.7,29.71,South,169,1.0,6.0,64,0.00,,---,0.01,VWS V14.01,2013-04-08 20:03:00,
2013-04-08 13:08:00,57.8,45.3,29.70,South,183,4.0,12.0,63,0.00,,---,0.01,VWS V14.01,2013-04-08 20:08:00,
2013-04-08 13:13:00,58.0,44.6,29.70,SSE,159,0.0,13.0,61,0.00,,---,0.01,VWS V14.01,2013-04-08 20:13:00,
2013-04-08 13:18:00,59.0,46.4,29.69,SSE,155,12.0,12.0,63,0.00,,---,0.01,VWS V14.01,2013-04-08 20:18:00,
2013-04-08 13:23:00,59.0,44.7,29.69,SSE,154,4.0,14.0,59,0.00,,---,0.01,VWS V14.01,2013-04-08 20:23:00,
2013-04-08 13:28:00,59.0,45.2,29.69,South,189,3.0,14.0,60,0.00,,---,0.01,VWS V14.01,2013-04-08 20:28:00,
2013-04-08 13:33:00,58.9,44.6,29.69,SSE,163,2.0,9.0,59,0.00,,---,0.01,VWS V14.01,2013-04-08 20:33:00,
2013-04-08 13:38:00,58.7,45.7,29.69,South,174,5.0,10.0,62,0.00,,---,0.01,VWS V14.01,2013-04-08 20:38:00,
2013-04-08 13:43:00,58.8,45.8,29.68,SW,225,1.0,10.0,62,0.00,,---,0.01,VWS V14.01,2013-04-08 20:43:00,
2013-04-08 13:48:00,58.5,45.1,29.68,South,171,12.0,12.0,61,0.00,,---,0.01,VWS V14.01,2013-04-08 20:48:00,
2013-04-08 13:53:00,57.9,45.0,29.69,SW,233,4.0,12.0,62,0.00,,---,0.01,VWS V14.01,2013-04-08 20:53:00,
2013-04-08 13:58:00,57.3,44.8,29.69,South,190,2.0,12.0,63,0.00,,---,0.01,VWS V14.01,2013-04-08 20:58:00,
2013-04-08 14:03:00,57.0,45.4,29.69,SW,229,6.0,6.0,65,0.00,,---,0.01,VWS V14.01,2013-04-08 21:03:00,
2013-04-08 14:08:00,56.8,44.8,29.69,SW,223,8.0,10.0,64,0.00,,---,0.01,VWS V14.01,2013-04-08 21:08:00,
2013-04-08 14:13:00,56.7,44.3,29.69,South,185,1.0,10.0,63,0.00,,---,0.01,VWS V14.01,2013-04-08 21:13:00,
2013-04-08 14:18:00,56.8,44.3,29.69,SW,217,9.0,9.0,63,0.00,,---,0.01,VWS V14.01,2013-04-08 21:18:00,
2013-04-08 14:23:00,57.1,44.2,29.69,SW,236,2.0,13.0,62,0.00,,---,0.01,VWS V14.01,2013-04-08 21:23:00,
2013-04-08 14:28:00,57.4,44.1,29.68,SW,222,7.0,13.0,61,0.00,,---,0.01,VWS V14.01,2013-04-08 21:28:00,
2013-04-08 14:33:00,57.6,44.3,29.69,SW,225,3.0,8.0,61,0.00,,---,0.01,VWS V14.01,2013-04-08 21:33:00,
2013-04-08 14:38:00,57.8,44.9,29.68,South,186,5.0,9.0,62,0.00,,---,0.01,VWS V14.01,2013-04-08 21:38:00,
2013-04-08 14:43:00,58.5,45.1,29.69,WSW,246,6.0,10.0,61,0.00,,---,0.01,VWS V14.01,2013-04-08 21:43:00,
2013-04-08 14:48:00,58.8,44.5,29.68,SW,226,0.0,6.0,59,0.00,,---,0.01,VWS V14.01,2013-04-08 21:48:00,
2013-04-08 14:53:00,58.7,44.0,29.68,WSW,254,3.0,7.0,58,0.00,,---,0.01,VWS V14.01,2013-04-08 21:53:00,
2013-04-08 14:58:00,58.7,44.4,29.68,SW,234,2.0,10.0,59,0.00,,---,0.01,VWS V14.01,2013-04-08 21:58:00,
2013-04-08 15:03:00,58.8,44.1,29.69,SW,234,5.0,10.0,58,0.00,,---,0.01,VWS V14.01,2013-04-08 22:03:00,
2013-04-08 15:08:00,59.0,44.7,29.68,SW,234,2.0,10.0,59,0.00,,---,0.01,VWS V14.01,2013-04-08 22:08:00,
2013-04-08 15:13:00,59.0,43.8,29.68,SW,235,4.0,12.0,57,0.00,,---,0.01,VWS V14.01,2013-04-08 22:13:00,
2013-04-08 15:18:00,59.0,43.8,29.68,SW,228,5.0,7.0,57,0.00,,---,0.01,VWS V14.01,2013-04-08 22:18:00,
2013-04-08 15:23:00,59.9,45.1,29.68,SSW,211,6.0,11.0,58,0.00,,---,0.01,VWS V14.01,2013-04-08 22:23:00,
2013-04-08 15:28:00,60.7,44.5,29.68,South,186,7.0,11.0,55,0.00,,---,0.01,VWS V14.01,2013-04-08 22:28:00,
2013-04-08 15:33:00,60.7,44.5,29.67,SW,214,3.0,7.0,55,0.00,,---,0.01,VWS V14.01,2013-04-08 22:33:00,
2013-04-08 15:38:00,61.3,43.5,29.67,SSE,164,0.0,7.0,52,0.00,,---,0.01,VWS V14.01,2013-04-08 22:38:00,
2013-04-08 15:43:00,61.8,45.0,29.67,SW,223,6.0,11.0,54,0.00,,---,0.01,VWS V14.01,2013-04-08 22:43:00,
2013-04-08 15:48:00,61.8,44.5,29.67,SW,232,5.0,7.0,53,0.00,,---,0.01,VWS V14.01,2013-04-08 22:48:00,
2013-04-08 15:53:00,61.7,43.9,29.67,SW,227,7.0,10.0,52,0.00,,---,0.01,VWS V14.01,2013-04-08 22:53:00,
2013-04-08 15:58:00,61.7,42.9,29.68,SSW,211,6.0,10.0,50,0.00,,---,0.01,VWS V14.01,2013-04-08 22:58:00,
2013-04-08 16:03:00,61.8,43.5,29.67,South,170,7.0,9.0,51,0.00,,---,0.01,VWS V14.01,2013-04-08 23:03:00,
2013-04-08 16:08:00,61.4,42.6,29.67,SSW,193,0.0,9.0,50,0.00,,---,0.01,VWS V14.01,2013-04-08 23:08:00,
2013-04-08 16:13:00,60.5,42.3,29.67,SW,218,2.0,9.0,51,0.00,,---,0.01,VWS V14.01,2013-04-08 23:13:00,
2013-04-08 16:18:00,59.8,42.2,29.67,WSW,256,5.0,6.0,52,0.00,,---,0.01,VWS V14.01,2013-04-08 23:18:00,
2013-04-08 16:23:00,59.1,41.5,29.68,SW,221,4.0,10.0,52,0.00,,---,0.01,VWS V14.01,2013-04-08 23:23:00,
2013-04-08 16:28:00,59.0,41.9,29.67,SW,221,3.0,10.0,53,0.00,,---,0.01,VWS V14.01,2013-04-08 23:28:00,
2013-04-08 16:33:00,59.0,41.9,29.68,SSW,213,0.0,3.0,53,0.00,,---,0.01,VWS V14.01,2013-04-08 23:33:00,
2013-04-08 16:38:00,59.0,41.9,29.68,SW,234,2.0,4.0,53,0.00,,---,0.01,VWS V14.01,2013-04-08 23:38:00,
2013-04-08 16:43:00,59.0,40.4,29.68,WSW,256,0.0,5.0,50,0.00,,---,0.01,VWS V14.01,2013-04-08 23:43:00,
2013-04-08 16:48:00,59.0,41.4,29.68,WSW,254,0.0,6.0,52,0.00,,---,0.01,VWS V14.01,2013-04-08 23:48:00,
2013-04-08 16:53:00,58.6,41.0,29.68,SW,218,3.0,6.0,52,0.00,,---,0.01,VWS V14.01,2013-04-08 23:53:00,
2013-04-08 16:58:00,58.4,40.4,29.68,SW,226,3.0,9.0,51,0.00,,---,0.01,VWS V14.01,2013-04-08 23:58:00,
2013-04-08 17:03:00,58.5,41.5,29.67,SSW,207,0.0,0.0,53,0.00,,---,0.01,VWS V14.01,2013-04-09 00:03:00,
2013-04-08 17:08:00,59.0,41.9,29.67,SW,234,4.0,7.0,53,0.00,,---,0.01,VWS V14.01,2013-04-09 00:08:00,
2013-04-08 17:13:00,59.5,42.9,29.67,SW,231,1.0,10.0,54,0.00,,---,0.01,VWS V14.01,2013-04-09 00:13:00,
2013-04-08 17:18:00,59.6,42.0,29.67,SW,219,2.0,7.0,52,0.00,,---,0.01,VWS V14.01,2013-04-09 00:18:00,
2013-04-08 17:23:00,59.6,42.0,29.67,SW,229,4.0,7.0,52,0.00,,---,0.01,VWS V14.01,2013-04-09 00:23:00,
2013-04-08 17:28:00,59.5,40.9,29.67,SSW,200,4.0,9.0,50,0.00,,---,0.01,VWS V14.01,2013-04-09 00:28:00,
2013-04-08 17:33:00,59.2,42.1,29.68,SW,225,10.0,10.0,53,0.00,,---,0.01,VWS V14.01,2013-04-09 00:33:00,
2013-04-08 17:39:00,59.0,41.9,29.68,SSW,202,3.0,10.0,53,0.00,,---,0.01,VWS V14.01,2013-04-09 00:39:00,
2013-04-08 17:44:00,58.9,41.8,29.68,SSW,202,1.0,10.0,53,0.00,,---,0.01,VWS V14.01,2013-04-09 00:44:00,
2013-04-08 17:49:00,58.6,41.5,29.69,SSW,207,7.0,12.0,53,0.00,,---,0.01,VWS V14.01,2013-04-09 00:49:00,
2013-04-08 17:54:00,58.6,42.5,29.69,South,191,2.0,12.0,55,0.00,,---,0.01,VWS V14.01,2013-04-09 00:54:00,
2013-04-08 17:59:00,58.8,41.2,29.69,South,187,0.0,12.0,52,0.00,,---,0.01,VWS V14.01,2013-04-09 00:59:00,
2013-04-08 18:04:00,59.0,41.9,29.69,SSW,207,4.0,11.0,53,0.00,,---,0.01,VWS V14.01,2013-04-09 01:04:00,
2013-04-08 18:09:00,59.0,41.4,29.69,SW,223,3.0,11.0,52,0.00,,---,0.01,VWS V14.01,2013-04-09 01:09:00,
2013-04-08 18:14:00,59.0,39.9,29.69,SSW,212,4.0,11.0,49,0.00,,---,0.01,VWS V14.01,2013-04-09 01:14:00,
2013-04-08 18:19:00,59.0,40.9,29.70,SSW,194,4.0,7.0,51,0.00,,---,0.01,VWS V14.01,2013-04-09 01:19:00,
2013-04-08 18:24:00,59.0,40.9,29.70,SSW,203,3.0,7.0,51,0.00,,---,0.01,VWS V14.01,2013-04-09 01:24:00,
2013-04-08 18:29:00,58.9,41.3,29.70,SW,230,4.0,7.0,52,0.00,,---,0.01,VWS V14.01,2013-04-09 01:29:00,
2013-04-08 18:34:00,58.6,41.0,29.70,SSW,196,4.0,7.0,52,0.00,,---,0.01,VWS V14.01,2013-04-09 01:34:00,
2013-04-08 18:39:00,58.4,42.3,29.70,SW,234,5.0,7.0,55,0.00,,---,0.01,VWS V14.01,2013-04-09 01:39:00,
2013-04-08 18:44:00,58.1,41.1,29.70,SSW,196,3.0,9.0,53,0.00,,---,0.01,VWS V14.01,2013-04-09 01:44:00,
2013-04-08 18:49:00,57.9,41.8,29.70,SW,227,6.0,6.0,55,0.00,,---,0.01,VWS V14.01,2013-04-09 01:49:00,
2013-04-08 18:54:00,57.6,42.0,29.70,SW,217,3.0,6.0,56,0.00,,---,0.01,VWS V14.01,2013-04-09 01:54:00,
2013-04-08 18:59:00,57.3,42.2,29.71,SSW,201,4.0,6.0,57,0.00,,---,0.01,VWS V14.01,2013-04-09 01:59:00,
2013-04-08 19:04:00,57.1,42.9,29.71,South,180,0.0,3.0,59,0.00,,---,0.01,VWS V14.01,2013-04-09 02:04:00,
2013-04-08 19:10:00,56.8,42.6,29.71,SSW,194,0.0,6.0,59,0.00,,---,0.01,VWS V14.01,2013-04-09 02:10:00,
2013-04-08 19:15:00,56.5,42.8,29.72,South,179,0.0,6.0,60,0.00,,---,0.01,VWS V14.01,2013-04-09 02:15:00,
2013-04-08 19:20:00,56.3,43.5,29.72,SSE,153,3.0,3.0,62,0.00,,---,0.01,VWS V14.01,2013-04-09 02:20:00,
2013-04-08 19:25:00,56.1,43.7,29.72,SSE,157,0.0,5.0,63,0.00,,---,0.01,VWS V14.01,2013-04-09 02:25:00,
2013-04-08 19:30:00,55.9,43.5,29.72,SSE,157,2.0,5.0,63,0.00,,---,0.01,VWS V14.01,2013-04-09 02:30:00,
2013-04-08 19:35:00,55.7,43.7,29.72,SSE,157,0.0,3.0,64,0.00,,---,0.01,VWS V14.01,2013-04-09 02:35:00,
2013-04-08 19:40:00,55.5,43.9,29.73,SSE,148,0.0,3.0,65,0.00,,---,0.01,VWS V14.01,2013-04-09 02:40:00,
2013-04-08 19:45:00,55.3,43.8,29.73,SE,135,0.0,4.0,65,0.00,,---,0.01,VWS V14.01,2013-04-09 02:45:00,
2013-04-08 19:50:00,55.1,44.0,29.73,East,90,0.0,3.0,66,0.00,,---,0.01,VWS V14.01,2013-04-09 02:50:00,
2013-04-08 19:55:00,54.9,43.8,29.74,East,91,1.0,3.0,66,0.00,,---,0.01,VWS V14.01,2013-04-09 02:55:00,
2013-04-08 20:00:00,54.7,44.0,29.74,ESE,106,1.0,5.0,67,0.00,,---,0.01,VWS V14.01,2013-04-09 03:00:00,
2013-04-08 20:05:00,54.5,43.4,29.74,ESE,105,0.0,3.0,66,0.00,,---,0.01,VWS V14.01,2013-04-09 03:05:00,
2013-04-08 20:10:00,54.4,43.7,29.74,ESE,105,0.0,3.0,67,0.00,,---,0.01,VWS V14.01,2013-04-09 03:10:00,
2013-04-08 20:15:00,54.2,43.5,29.75,ENE,65,1.0,4.0,67,0.00,,---,0.01,VWS V14.01,2013-04-09 03:15:00,
2013-04-08 20:20:00,54.0,42.9,29.75,ENE,65,0.0,1.0,66,0.00,,---,0.01,VWS V14.01,2013-04-09 03:20:00,
2013-04-08 20:25:00,53.7,42.6,29.75,ENE,65,0.0,3.0,66,0.00,,---,0.01,VWS V14.01,2013-04-09 03:25:00,
2013-04-08 20:30:00,53.5,42.4,29.75,ENE,65,0.0,3.0,66,0.00,,---,0.01,VWS V14.01,2013-04-09 03:30:00,
2013-04-08 20:35:00,53.3,42.2,29.75,ENE,64,0.0,0.0,66,0.00,,---,0.01,VWS V14.01,2013-04-09 03:35:00,
2013-04-08 20:40:00,53.1,42.1,29.75,ENE,65,0.0,0.0,66,0.00,,---,0.01,VWS V14.01,2013-04-09 03:40:00,
2013-04-08 20:45:00,53.0,42.3,29.75,ENE,65,0.0,0.0,67,0.00,,---,0.01,VWS V14.01,2013-04-09 03:45:00,
2013-04-08 20:50:00,52.7,42.1,29.75,ENE,65,0.0,0.0,67,0.00,,---,0.01,VWS V14.01,2013-04-09 03:50:00,
2013-04-08 20:55:00,52.6,42.3,29.76,ENE,66,0.0,4.0,68,0.00,,---,0.01,VWS V14.01,2013-04-09 03:55:00,
2013-04-08 21:00:00,52.5,42.3,29.76,ENE,66,0.0,4.0,68,0.00,,---,0.01,VWS V14.01,2013-04-09 04:00:00,
2013-04-08 21:01:00,52.5,42.3,29.76,ENE,65,0.0,0.0,68,0.00,,---,0.01,VWS V14.01,2013-04-09 04:01:00,
2013-04-08 21:06:00,52.4,41.8,29.76,ENE,64,3.0,4.0,67,0.00,,---,0.01,VWS V14.01,2013-04-09 04:06:00,
2013-04-08 21:11:00,52.2,41.6,29.77,ENE,65,0.0,4.0,67,0.00,,---,0.01,VWS V14.01,2013-04-09 04:11:00,
2013-04-08 21:17:00,51.9,41.3,29.77,ENE,63,3.0,5.0,67,0.00,,---,0.01,VWS V14.01,2013-04-09 04:17:00,
2013-04-08 21:22:00,51.6,41.4,29.76,ENE,59,2.0,5.0,68,0.00,,---,0.01,VWS V14.01,2013-04-09 04:22:00,
2013-04-08 21:27:00,51.4,41.2,29.77,ENE,61,0.0,5.0,68,0.00,,---,0.01,VWS V14.01,2013-04-09 04:27:00,
2013-04-08 21:32:00,51.2,41.4,29.77,NE,56,4.0,5.0,69,0.00,,---,0.01,VWS V14.01,2013-04-09 04:32:00,
2013-04-08 21:37:00,51.1,41.3,29.77,NE,50,3.0,5.0,69,0.00,,---,0.01,VWS V14.01,2013-04-09 04:37:00,
2013-04-08 21:42:00,50.9,41.1,29.77,NE,50,0.0,5.0,69,0.00,,---,0.01,VWS V14.01,2013-04-09 04:42:00,
2013-04-08 21:47:00,50.9,41.1,29.78,NE,49,1.0,2.0,69,0.00,,---,0.01,VWS V14.01,2013-04-09 04:47:00,
2013-04-08 21:52:00,50.8,41.0,29.78,NE,49,0.0,4.0,69,0.00,,---,0.01,VWS V14.01,2013-04-09 04:52:00,
2013-04-08 21:57:00,50.6,41.2,29.78,NE,50,0.0,4.0,70,0.00,,---,0.01,VWS V14.01,2013-04-09 04:57:00,
2013-04-08 22:02:00,50.5,41.1,29.78,NE,50,2.0,4.0,70,0.00,,---,0.01,VWS V14.01,2013-04-09 05:02:00,
2013-04-08 22:07:00,50.4,41.4,29.78,NE,51,0.0,4.0,71,0.00,,---,0.01,VWS V14.01,2013-04-09 05:07:00,
2013-04-08 22:12:00,50.3,41.3,29.78,NE,51,0.0,5.0,71,0.00,,---,0.01,VWS V14.01,2013-04-09 05:12:00,
2013-04-08 22:17:00,50.3,41.3,29.78,NE,52,2.0,3.0,71,0.00,,---,0.01,VWS V14.01,2013-04-09 05:17:00,
2013-04-08 22:22:00,50.1,41.1,29.79,NE,52,0.0,3.0,71,0.00,,---,0.01,VWS V14.01,2013-04-09 05:22:00,
2013-04-08 22:27:00,50.1,41.1,29.79,NE,51,0.0,3.0,71,0.00,,---,0.01,VWS V14.01,2013-04-09 05:27:00,
2013-04-08 22:32:00,50.0,41.0,29.79,NE,52,0.0,0.0,71,0.00,,---,0.01,VWS V14.01,2013-04-09 05:32:00,
2013-04-08 22:37:00,49.8,40.8,29.79,NE,52,3.0,4.0,71,0.00,,---,0.01,VWS V14.01,2013-04-09 05:37:00,
2013-04-08 22:42:00,49.8,41.2,29.79,NE,54,4.0,7.0,72,0.00,,---,0.01,VWS V14.01,2013-04-09 05:42:00,
2013-04-08 22:47:00,49.7,41.0,29.79,NE,53,1.0,6.0,72,0.00,,---,0.01,VWS V14.01,2013-04-09 05:47:00,
2013-04-08 22:52:00,49.5,41.2,29.79,NE,53,0.0,6.0,73,0.00,,---,0.01,VWS V14.01,2013-04-09 05:52:00,
2013-04-08 22:57:00,49.4,40.8,29.80,NE,56,0.0,6.0,72,0.00,,---,0.01,VWS V14.01,2013-04-09 05:57:00,
2013-04-08 23:02:00,49.2,40.9,29.79,NE,55,0.0,0.0,73,0.00,,---,0.01,VWS V14.01,2013-04-09 06:02:00,
2013-04-08 23:07:00,49.2,40.9,29.79,NE,55,0.0,4.0,73,0.00,,---,0.01,VWS V14.01,2013-04-09 06:07:00,
2013-04-08 23:12:00,49.0,40.7,29.80,NE,55,0.0,4.0,73,0.00,,---,0.01,VWS V14.01,2013-04-09 06:12:00,
2013-04-08 23:17:00,48.9,40.6,29.80,NE,55,2.0,2.0,73,0.00,,---,0.01,VWS V14.01,2013-04-09 06:17:00,
2013-04-08 23:22:00,48.8,40.5,29.80,NE,55,0.0,3.0,73,0.00,,---,0.01,VWS V14.01,2013-04-09 06:22:00,
2013-04-08 23:27:00,48.7,40.5,29.80,NE,55,0.0,4.0,73,0.00,,---,0.01,VWS V14.01,2013-04-09 06:27:00,
2013-04-08 23:32:00,48.6,40.7,29.80,NE,55,0.0,3.0,74,0.00,,---,0.01,VWS V14.01,2013-04-09 06:32:00,
2013-04-08 23:37:00,48.5,40.2,29.80,NE,55,2.0,4.0,73,0.00,,---,0.01,VWS V14.01,2013-04-09 06:37:00,
2013-04-08 23:42:00,48.4,40.2,29.80,NE,55,0.0,4.0,73,0.00,,---,0.01,VWS V14.01,2013-04-09 06:42:00,
2013-04-08 23:47:00,48.3,40.1,29.80,NE,56,0.0,0.0,73,0.00,,---,0.01,VWS V14.01,2013-04-09 06:47:00,
2013-04-08 23:52:00,48.2,40.0,29.80,NE,55,0.0,0.0,73,0.00,,---,0.01,VWS V14.01,2013-04-09 06:52:00,
2013-04-08 23:57:00,48.1,39.9,29.80,NE,56,0.0,0.0,73,0.00,,---,0.01,VWS V14.01,2013-04-09 06:57:00,